SPEKTR R

Satellite information

Favourite Embed

Satellite Type and Status

PAYLOADIN ORBIT

Key statistics

Satellite SPEKTR R at a glance.

Uptime

5043

Days in orbit

Revolutions

≈ 0.1

Per day

Orbit

OTHER

Other

Inclination

84.7

Latest

Satellite identification and parameters

Extended collection of information and parameters for SPEKTR R.

Object identification

Identified? True

Debris? False

Object name: SPEKTR R

International designator: 2011-037A

Object number (NORAD): 37755

Object ID (CCSDS): 37755

Country: COMMONWEALTH OF INDEPENDENT STATES (CIS)

Current information (Y/N): Y

RCS size: LARGE

Orbital parameters

Period: 13340.16 minutes

Inclination: 84.6858 deg

SMA: 186323.462 km

Apoapsis: 306795.402 km

Periapsis: 53095.252 km

RAAN: 324.3165 deg

Eccentricy: 0.6808057

Argument of periapsis: 328.6791 deg

Mean anomaly: 358.7866 deg

Mean motion: 0.10794473 rev/day

Mean motion (dot): -0.00000588 rev/day2

B* drag term: 0.0 1/REarth

Two-line elements (TLE)

Creation date: April 25, 2025, 8:55 p.m.

Reference frame: TEME

Reference center: EARTH

Epoch: April 29, 2025, 10:56 p.m. UTC

TLE line 0: 0 SPEKTR R

TLE line 1: 1 37755U 11037A 25119.95563843 -.00000588 00000-0 00000-0 0 9992

TLE line 2: 2 37755 84.6858 324.3165 6808057 328.6791 358.7866 0.10794473 5454

Live tracking on map

Real-time ground track for satellite SPEKTR R.

In-orbit conjunctions

There are no conjunctions computed for SPEKTR R, at the moment. Check back to stay up to date, as we update our databases every day.

Go to all conjunctions

Associated space launch

The RadioAstron is an international space Very Long Baseline Interferometry project led by the Astro Space Center of Lebedev Physical Institute in Moscow, Russia. The aim of the mission is to use the Spektr-R space telescope to conduct interferometer observations in conjunction with the global ground radio telescope network in order to obtain images, coordinates, motions and evolution of angular structure of different radio emitting objects in the Universe with the extraordinary high angular resolution.

SPEKTR R was lifted into orbit during the mission ‘Zenit-3F | Spektr-R (RadioAstron)’, on board a Zenit 3F space rocket.

The launch took place on July 18, 2011, 2:31 a.m. from 45/1.

For more information about the launch, click the button.

Launch to space Zenit-3F | Spektr-R (RadioAstron)
Zenit-3F | Spektr-R (RadioAstron)

Agency: N/A

Status: Launch Successful

Launch date: July 18, 2011, 2:31 a.m. UTC

Rocket: Zenit 3F

Launch pad: 45/1

Location: Baikonur Cosmodrome, Republic of Kazakhstan

...

Latest news about this satellite

There are no fresh news available about this satellite. Check back as we update our databases every day.


Newsletter sign-up

Weekly statistics, charts and insights to help you stay on top of the space industry.